User: anonymous   Login
Location: Unspecified
(0.0000°N, 0.0000°E)
Time: 02:59:15
(UTC+00:00)
Language:

COSMOS 2488 - Orbit

View from above orbital plane
View from above orbital plane
View from above satellite
View from above satellite

Ground track
Ground track

The orbit data is extracted from the following two-line orbital elements,

1 39483U 13076A   17232.89178221  .00000010  00000-0  00000+0 0  9997
2 39483  82.4849  16.8336 0018987 279.2646  80.6289 12.42865298165798
Epoch (UTC): 20 August 2017 21:24:09
Eccentricity: 0.0018987
inclination: 82.4849°
perigee height: 1479 km
apogee height: 1509 km
right ascension of ascending node: 16.8336°
argument of perigee: 279.2646°
revolutions per day: 12.42865298
mean anomaly at epoch: 80.6289°
orbit number at epoch: 16579

The dashed part of the orbit path shows where the satellite is in the earth's shadow,  

DLR